#timestamp,LO_Frequency,Hit,StdDev 
1591156815.6,286047029.2,N
1591156835.5,286047027.5,N
1591156855.3,286047026.7,N
1591156875.2,286047024.7,N
1591156895.9,286047023.1,N
1591156915.7,286047020.8,N
1591156935.6,286047025.1,N
1591156955.4,286047025.2,N
1591156975.3,286047021.6,N
1591156995.1,286047019.8,N
1591156996.0,286047019.8,Y
1591157015.8,286046997.7,P
1591157035.7,286046999.6,N
1591157055.5,286046997.0,N
1591157075.3,286046996.9,N
1591157095.2,286046997.0,N
1591157115.0,286046995.8,N
1591157115.9,286046995.8,N
1591157135.8,286046992.2,N
1591157155.6,286046993.8,N
1591157175.4,286046996.0,N
1591157195.3,286046993.9,N
1591157215.1,286046995.5,N
1591157235.9,286046991.3,N
1591157255.7,286046989.9,N
1591157275.5,286046990.6,N
1591157295.4,286046991.1,N
1591157315.2,286046989.3,N
1591157335.1,286046986.6,N
1591157336.0,286046986.6,N
1591157355.8,286046982.7,N
1591157375.6,286046980.5,N
1591157395.5,286046979.2,N
1591157415.3,286046975.8,N
1591157435.2,286046975.0,N
1591157455.9,286046970.9,Y
1591157475.7,286046980.0,P
1591157495.6,286046975.8,P
1591157515.4,286046979.4,P
1591157535.3,286046986.3,N
1591157555.1,286046991.3,N
1591157556.0,286046991.3,N
1591157575.8,286046992.3,N
1591157595.7,286046992.7,N
1591157615.5,286046992.8,N
1591157635.3,286046993.2,N
1591157655.2,286046990.1,N
1591157675.0,286046994.4,N
1591157675.9,286046994.4,N
1591157695.8,286046998.6,N
1591157715.6,286047003.6,N
1591157735.4,286047006.8,N
1591157755.3,286047010.3,N
1591157775.1,286047012.8,N
1591157795.9,286047018.1,N
1591157815.7,286047022.4,N
1591157835.5,286047028.4,N
1591157855.4,286047027.4,N
1591157875.2,286047031.2,N
1591157895.0,286047026.2,N
1591157895.9,286047026.2,N
1591157915.8,286047022.2,N
1591157935.6,286047022.0,N
1591157955.5,286047016.7,N
1591157975.3,286047012.9,N
1591157995.1,286047013.7,N
1591158015.9,286047014.9,N
1591158035.7,286047017.2,N
1591158055.6,286047016.9,N
1591158075.4,286047015.7,N
1591158095.2,286047018.3,N
1591158115.1,286047014.7,N
1591158116.0,286047014.7,N
1591158135.8,286047011.9,N
1591158155.6,286047010.5,N
1591158175.5,286047008.4,N
1591158195.3,286047005.2,N
1591158215.2,286047003.3,N
1591158235.9,286047003.4,N
1591158255.7,286047000.2,N
1591158275.6,286047002.8,N
1591158295.4,286047002.3,N
1591158315.2,286047001.5,N
1591158335.1,286047002.9,N
1591158336.0,286047002.9,N
1591158355.8,286047007.6,N
1591158375.7,286047006.3,N
1591158395.5,286047010.7,N
1591158415.3,286047012.1,N
1591158435.2,286047017.2,N
1591158455.0,286047021.4,Y
1591158455.9,286047021.4,P
1591158475.8,286047013.6,N
1591158495.6,286047011.3,N
1591158515.4,286047016.8,Y
1591158535.3,286047003.5,P
1591158555.1,286047003.5,N
1591158575.8,286047007.2,N
1591158595.7,286047008.8,N
1591158615.5,286047010.8,N
1591158635.4,286047008.0,N
1591158655.2,286047010.7,N
1591158675.0,286047009.0,N
1591158675.9,286047009.0,N
1591158695.8,286047003.0,N
1591158715.6,286047003.3,N
1591158735.4,286047001.9,N
1591158755.3,286047003.9,N
1591158775.1,286047002.8,N
1591158795.9,286046998.9,N
1591158815.7,286046997.5,N
1591158835.5,286046996.2,N
1591158855.4,286046997.7,N
1591158875.2,286046996.6,N
1591158895.0,286046999.5,N
1591158896.0,286046999.5,N
1591158915.8,286046999.0,N
1591158935.7,286046998.7,N
1591158955.5,286046998.9,N
1591158975.3,286047000.9,N
1591158995.2,286046996.5,N
1591159015.0,286046993.8,N
1591159015.9,286046993.8,N
1591159035.8,286046991.2,N
1591159055.6,286046986.9,N
1591159075.4,286046982.4,Y
1591159095.3,286046977.4,P
1591159115.1,286046974.8,N
1591159135.8,286046974.9,N
1591159155.7,286046975.1,N
1591159175.5,286046970.0,N
1591159195.4,286046971.5,N
1591159215.2,286046968.0,Y
1591159235.0,286046988.3,P
1591159235.9,286046988.3,N
1591159255.8,286046982.4,P
1591159275.6,286046981.1,Y
1591159295.4,286047000.6,P
1591159315.3,286047001.9,N
1591159335.1,286047005.5,N
1591159355.9,286047012.4,N
1591159375.7,286047018.2,N
1591159395.5,286047021.7,N
1591159415.4,286047024.7,N
1591159435.2,286047024.0,N
1591159455.0,286047025.6,N
1591159456.0,286047025.6,N
1591159475.8,286047028.0,N
1591159495.6,286047027.1,N
1591159515.5,286047033.1,N
1591159565.3,286047031.8,E
1591159575.2,286047015.7,N
1591159595.1,286046998.9,P
1591159596.0,286046998.9,N
1591159615.8,286046995.4,N
1591159635.7,286046997.0,N
1591159655.5,286046998.9,N
1591159675.3,286047001.3,N
1591159695.2,286047005.0,N
1591159715.0,286047007.7,N
1591159715.9,286047007.7,N
1591159735.8,286047009.5,N
1591159755.6,286047012.1,N
1591159775.4,286047011.9,N
1591159795.3,286047010.4,N
1591159815.1,286047007.0,N
1591159835.8,286047002.1,N
1591159855.7,286047001.2,N
1591159875.5,286047001.1,N
1591159895.3,286046998.4,N
1591159915.2,286046998.3,N
1591159935.0,286047000.3,N
1591159935.9,286047000.3,N
1591159955.8,286047000.1,N
1591159975.6,286046999.0,N
1591159995.4,286046999.0,N
1591160015.3,286047001.1,N
1591160035.1,286047000.2,N
1591160055.8,286047001.3,N
1591160075.7,286047008.6,N
1591160095.5,286047010.7,N
1591160115.4,286047012.3,N
1591160135.2,286047015.2,Y
1591160155.0,286047014.8,P
1591160155.9,286047014.8,N
1591160175.8,286047011.5,N
1591160195.6,286047017.2,Y
1591160215.5,286047007.3,P
1591160235.3,286047003.1,N
1591160255.1,286047004.2,N
1591160275.9,286047002.8,N
1591160295.7,286046995.8,N
1591160315.5,286046991.2,N
1591160335.4,286046991.2,N
1591160355.2,286046991.1,N
1591160375.1,286046990.5,N
1591160376.0,286046990.5,N
1591160395.8,286046997.6,N
